Location: *
(17.3280°S, 114.7300°W)
Time: 15:42:36
(UTC+00:00)

Hubble Space Telescope - Pass Details

Date: 31 October 2020
Orbit: 536 x 540 km, 28.5° (Epoch: 29 November)

Event Time Altitude Azimuth Distance (km) Brightness Sun altitude
Exits shadow 11:23:16 45° 206° (SSW) 745 1.4 -22.7°
Maximum altitude 11:24:11 56° 158° (SSE) 644 1.3 -22.5°
Drops below altitude 10° 11:28:16 10° 79° (E) 1,791 4.2 -21.6°
Sets 11:30:33 0° 75° (ENE) 2,678 5.1 -21.1°
